Year,Month,Day,Hour,Minute,Value (Times are PST for temperature in C)
2007,05,31,00,00,16.20
2007,05,31,00,01,16.20
2007,05,31,00,02,16.10
2007,05,31,00,03,16.10
2007,05,31,00,04,16.10
2007,05,31,00,05,16.10
2007,05,31,00,06,16.10
2007,05,31,00,07,16.10
2007,05,31,00,08,16.10
2007,05,31,00,09,16.10
2007,05,31,00,10,16.10
2007,05,31,00,11,16.10
2007,05,31,00,12,16.10
2007,05,31,00,13,16.10
2007,05,31,00,14,16.10
2007,05,31,00,15,16.10
2007,05,31,00,16,16.10
2007,05,31,00,17,16.10
2007,05,31,00,18,16.10
2007,05,31,00,19,16.00
2007,05,31,00,20,15.90
2007,05,31,00,21,15.90
2007,05,31,00,22,15.90
2007,05,31,00,23,15.80
2007,05,31,00,24,15.80
2007,05,31,00,25,15.80
2007,05,31,00,26,15.80
2007,05,31,00,27,15.80
2007,05,31,00,28,15.80
2007,05,31,00,29,15.70
2007,05,31,00,30,15.70
2007,05,31,00,31,15.60
2007,05,31,00,32,15.60
2007,05,31,00,33,15.50
2007,05,31,00,34,15.50
2007,05,31,00,35,15.40
2007,05,31,00,36,15.30
2007,05,31,00,37,15.30
2007,05,31,00,38,15.30
2007,05,31,00,39,15.30
2007,05,31,00,40,15.30
2007,05,31,00,41,15.30
2007,05,31,00,42,15.30
2007,05,31,00,43,15.30
2007,05,31,00,44,15.30
2007,05,31,00,45,15.30
2007,05,31,00,46,15.30
2007,05,31,00,47,15.30
2007,05,31,00,48,15.30
2007,05,31,00,49,15.40
2007,05,31,00,50,15.40
2007,05,31,00,51,15.40
2007,05,31,00,52,15.40
2007,05,31,00,53,15.40
2007,05,31,00,54,15.40
2007,05,31,00,55,15.40
2007,05,31,00,56,15.40
2007,05,31,00,57,15.50
2007,05,31,00,58,15.50
2007,05,31,00,59,15.50
2007,05,31,01,00,15.50
2007,05,31,01,01,15.50
2007,05,31,01,02,15.50
2007,05,31,01,03,15.50
2007,05,31,01,04,15.40
2007,05,31,01,05,15.40
2007,05,31,01,06,15.30
2007,05,31,01,07,15.30
2007,05,31,01,08,15.30
2007,05,31,01,09,15.30
2007,05,31,01,10,15.30
2007,05,31,01,11,15.20
2007,05,31,01,12,15.20
2007,05,31,01,13,15.20
2007,05,31,01,14,15.20
2007,05,31,01,15,15.20
2007,05,31,01,16,15.20
2007,05,31,01,17,15.30
2007,05,31,01,18,15.30
2007,05,31,01,19,15.30
2007,05,31,01,20,15.40
2007,05,31,01,21,15.40
2007,05,31,01,22,15.50
2007,05,31,01,23,15.50
2007,05,31,01,24,15.50
2007,05,31,01,25,15.50
2007,05,31,01,26,15.50
2007,05,31,01,27,15.50
2007,05,31,01,28,15.50
2007,05,31,01,29,15.40
2007,05,31,01,30,15.40
2007,05,31,01,31,15.30
2007,05,31,01,32,15.30
2007,05,31,01,33,15.30
2007,05,31,01,34,15.30
2007,05,31,01,35,15.30
2007,05,31,01,36,15.20
2007,05,31,01,37,15.20
2007,05,31,01,38,15.20
2007,05,31,01,39,15.20
2007,05,31,01,40,15.20
2007,05,31,01,41,15.20
2007,05,31,01,42,15.20
2007,05,31,01,43,15.20
2007,05,31,01,44,15.30
2007,05,31,01,45,15.30
2007,05,31,01,46,15.20
2007,05,31,01,47,15.20
2007,05,31,01,48,15.20
2007,05,31,01,49,15.10
2007,05,31,01,50,15.10
2007,05,31,01,51,15.00
2007,05,31,01,52,15.00
2007,05,31,01,53,14.90
2007,05,31,01,54,14.90
2007,05,31,01,55,14.90
2007,05,31,01,56,14.90
2007,05,31,01,57,14.90
2007,05,31,01,58,14.90
2007,05,31,01,59,15.00
2007,05,31,02,00,15.00
2007,05,31,02,01,15.00
2007,05,31,02,02,15.00
2007,05,31,02,03,15.00
2007,05,31,02,04,15.00
2007,05,31,02,05,14.90
2007,05,31,02,06,14.90
2007,05,31,02,07,14.80
2007,05,31,02,08,14.80
2007,05,31,02,09,14.60
2007,05,31,02,10,14.60
2007,05,31,02,11,14.50
2007,05,31,02,12,14.50
2007,05,31,02,13,14.50
2007,05,31,02,14,14.50
2007,05,31,02,15,14.50
2007,05,31,02,16,14.40
2007,05,31,02,17,14.50
2007,05,31,02,18,14.50
2007,05,31,02,19,14.50
2007,05,31,02,20,14.50
2007,05,31,02,21,14.50
2007,05,31,02,22,14.50
2007,05,31,02,23,14.50
2007,05,31,02,24,14.50
2007,05,31,02,25,14.50
2007,05,31,02,26,14.50
2007,05,31,02,27,14.50
2007,05,31,02,28,14.50
2007,05,31,02,29,14.50
2007,05,31,02,30,14.50
2007,05,31,02,31,14.50
2007,05,31,02,32,14.40
2007,05,31,02,33,14.40
2007,05,31,02,34,14.50
2007,05,31,02,35,14.50
2007,05,31,02,36,14.50
2007,05,31,02,37,14.50
2007,05,31,02,38,14.40
2007,05,31,02,39,14.40
2007,05,31,02,40,14.40
2007,05,31,02,41,14.30
2007,05,31,02,42,14.30
2007,05,31,02,43,14.20
2007,05,31,02,44,14.20
2007,05,31,02,45,14.20
2007,05,31,02,46,14.30
2007,05,31,02,47,14.30
2007,05,31,02,48,14.30
2007,05,31,02,49,14.30
2007,05,31,02,50,14.30
2007,05,31,02,51,14.30
2007,05,31,02,52,14.30
2007,05,31,02,53,14.30
2007,05,31,02,54,14.20
2007,05,31,02,55,14.20
2007,05,31,02,56,14.20
2007,05,31,02,57,14.20
2007,05,31,02,58,14.20
2007,05,31,02,59,14.20
2007,05,31,03,00,14.20
2007,05,31,03,01,14.10
2007,05,31,03,02,14.00
2007,05,31,03,03,14.00
2007,05,31,03,04,14.00
2007,05,31,03,05,14.00
2007,05,31,03,06,14.00
2007,05,31,03,07,14.00
2007,05,31,03,08,13.90
2007,05,31,03,09,13.90
2007,05,31,03,10,13.90
2007,05,31,03,11,13.90
2007,05,31,03,12,13.90
2007,05,31,03,13,14.00
2007,05,31,03,14,14.00
2007,05,31,03,15,14.00
2007,05,31,03,16,14.00
2007,05,31,03,17,14.00
2007,05,31,03,18,14.00
2007,05,31,03,19,14.00
2007,05,31,03,20,13.90
2007,05,31,03,21,13.90
2007,05,31,03,22,13.90
2007,05,31,03,23,13.90
2007,05,31,03,24,13.90
2007,05,31,03,25,13.90
2007,05,31,03,26,13.90
2007,05,31,03,27,13.90
2007,05,31,03,28,13.80
2007,05,31,03,29,13.70
2007,05,31,03,30,13.70
2007,05,31,03,31,13.70
2007,05,31,03,32,13.70
2007,05,31,03,33,13.70
2007,05,31,03,34,13.70
2007,05,31,03,35,13.70
2007,05,31,03,36,13.60
2007,05,31,03,37,13.60
2007,05,31,03,38,13.60
2007,05,31,03,39,13.60
2007,05,31,03,40,13.50
2007,05,31,03,41,13.50
2007,05,31,03,42,13.50
2007,05,31,03,43,13.50
2007,05,31,03,44,13.50
2007,05,31,03,45,13.60
2007,05,31,03,46,13.60
2007,05,31,03,47,13.60
2007,05,31,03,48,13.60
2007,05,31,03,49,13.70
2007,05,31,03,50,13.70
2007,05,31,03,51,13.70
2007,05,31,03,52,13.70
2007,05,31,03,53,13.70
2007,05,31,03,54,13.70
2007,05,31,03,55,13.70
2007,05,31,03,56,13.70
2007,05,31,03,57,13.70
2007,05,31,03,58,13.70
2007,05,31,03,59,13.70
2007,05,31,04,00,13.70
2007,05,31,04,01,13.70
2007,05,31,04,02,13.70
2007,05,31,04,03,13.70
2007,05,31,04,04,13.70
2007,05,31,04,05,13.70
2007,05,31,04,06,13.60
2007,05,31,04,07,13.60
2007,05,31,04,08,13.60
2007,05,31,04,09,13.60
2007,05,31,04,10,13.70
2007,05,31,04,11,13.70
2007,05,31,04,12,13.70
2007,05,31,04,13,13.70
2007,05,31,04,14,13.70
2007,05,31,04,15,13.70
2007,05,31,04,16,13.70
2007,05,31,04,17,13.70
2007,05,31,04,18,13.70
2007,05,31,04,19,13.70
2007,05,31,04,20,13.60
2007,05,31,04,21,13.60
2007,05,31,04,22,13.60
2007,05,31,04,23,13.60
2007,05,31,04,24,13.60
2007,05,31,04,25,13.60
2007,05,31,04,26,13.50
2007,05,31,04,27,13.50
2007,05,31,04,28,13.50
2007,05,31,04,29,13.50
2007,05,31,04,30,13.50
2007,05,31,04,31,13.60
2007,05,31,04,32,13.60
2007,05,31,04,33,13.60
2007,05,31,04,34,13.60
2007,05,31,04,35,13.70
2007,05,31,04,36,13.70
2007,05,31,04,37,13.70
2007,05,31,04,38,13.70
2007,05,31,04,39,13.70
2007,05,31,04,40,13.70
2007,05,31,04,41,13.80
2007,05,31,04,42,13.80
2007,05,31,04,43,13.80
2007,05,31,04,44,13.80
2007,05,31,04,45,13.80
2007,05,31,04,46,13.80
2007,05,31,04,47,13.80
2007,05,31,04,48,13.70
2007,05,31,04,49,13.80
2007,05,31,04,50,13.80
2007,05,31,04,51,13.80
2007,05,31,04,52,13.80
2007,05,31,04,53,13.80
2007,05,31,04,54,13.90
2007,05,31,04,55,13.90
2007,05,31,04,56,13.90
2007,05,31,04,57,13.80
2007,05,31,04,58,13.80
2007,05,31,04,59,13.80
2007,05,31,05,00,13.70
2007,05,31,05,01,13.70
2007,05,31,05,02,13.70
2007,05,31,05,03,13.70
2007,05,31,05,04,13.70
2007,05,31,05,05,13.70
2007,05,31,05,06,13.70
2007,05,31,05,07,13.60
2007,05,31,05,08,13.60
2007,05,31,05,09,13.60
2007,05,31,05,10,13.60
2007,05,31,05,11,13.60
2007,05,31,05,12,13.60
2007,05,31,05,13,13.50
2007,05,31,05,14,13.50
2007,05,31,05,15,13.40
2007,05,31,05,16,13.40
2007,05,31,05,17,13.30
2007,05,31,05,18,13.30
2007,05,31,05,19,13.30
2007,05,31,05,20,13.20
2007,05,31,05,21,13.20
2007,05,31,05,22,13.10
2007,05,31,05,23,13.10
2007,05,31,05,24,13.00
2007,05,31,05,25,12.90
2007,05,31,05,26,12.90
2007,05,31,05,27,12.90
2007,05,31,05,28,12.90
2007,05,31,05,29,12.90
2007,05,31,05,30,12.90
2007,05,31,05,31,12.90
2007,05,31,05,32,12.90
2007,05,31,05,33,12.90
2007,05,31,05,34,13.00
2007,05,31,05,35,13.00
2007,05,31,05,36,13.00
2007,05,31,05,37,13.00
2007,05,31,05,38,12.90
2007,05,31,05,39,12.90
2007,05,31,05,40,13.00
2007,05,31,05,41,13.00
2007,05,31,05,42,13.10
2007,05,31,05,43,13.10
2007,05,31,05,44,13.20
2007,05,31,05,45,13.20
2007,05,31,05,46,13.30
2007,05,31,05,47,13.30
2007,05,31,05,48,13.30
2007,05,31,05,49,13.30
2007,05,31,05,50,13.30
2007,05,31,05,51,13.30
2007,05,31,05,52,13.30
2007,05,31,05,53,13.30
2007,05,31,05,54,13.30
2007,05,31,05,55,13.30
2007,05,31,05,56,13.30
2007,05,31,05,57,13.30
2007,05,31,05,58,13.30
2007,05,31,05,59,13.30
2007,05,31,06,00,13.30
2007,05,31,06,01,13.30
2007,05,31,06,02,13.30
2007,05,31,06,03,13.20
2007,05,31,06,04,13.20
2007,05,31,06,05,13.20
2007,05,31,06,06,13.10
2007,05,31,06,07,13.10
2007,05,31,06,08,13.10
2007,05,31,06,09,13.10
2007,05,31,06,10,13.10
2007,05,31,06,11,13.10
2007,05,31,06,12,13.20
2007,05,31,06,13,13.20
2007,05,31,06,14,13.30
2007,05,31,06,15,13.30
2007,05,31,06,16,13.40
2007,05,31,06,17,13.50
2007,05,31,06,18,13.50
2007,05,31,06,19,13.50
2007,05,31,06,20,13.50
2007,05,31,06,21,13.50
2007,05,31,06,22,13.50
2007,05,31,06,23,13.50
2007,05,31,06,24,13.50
2007,05,31,06,25,13.60
2007,05,31,06,26,13.60
2007,05,31,06,27,13.60
2007,05,31,06,28,13.70
2007,05,31,06,29,13.70
2007,05,31,06,30,13.70
2007,05,31,06,31,13.60
2007,05,31,06,32,13.70
2007,05,31,06,33,13.70
2007,05,31,06,34,13.70
2007,05,31,06,35,13.70
2007,05,31,06,36,13.60
2007,05,31,06,37,13.70
2007,05,31,06,38,13.70
2007,05,31,06,39,13.80
2007,05,31,06,40,14.00
2007,05,31,06,41,14.10
2007,05,31,06,42,14.30
2007,05,31,06,43,14.50
2007,05,31,06,44,14.60
2007,05,31,06,45,14.80
2007,05,31,06,46,14.90
2007,05,31,06,47,15.00
2007,05,31,06,48,15.10
2007,05,31,06,49,15.20
2007,05,31,06,50,15.30
2007,05,31,06,51,15.40
2007,05,31,06,52,15.50
2007,05,31,06,53,15.60
2007,05,31,06,54,15.60
2007,05,31,06,55,15.70
2007,05,31,06,56,15.70
2007,05,31,06,57,15.80
2007,05,31,06,58,15.80
2007,05,31,06,59,15.80
2007,05,31,07,00,15.80
2007,05,31,07,01,15.80
2007,05,31,07,02,15.80
2007,05,31,07,03,15.80
2007,05,31,07,04,15.80
2007,05,31,07,05,15.80
2007,05,31,07,06,15.80
2007,05,31,07,07,15.70
2007,05,31,07,08,15.70
2007,05,31,07,09,15.70
2007,05,31,07,10,15.60
2007,05,31,07,11,15.60
2007,05,31,07,12,15.60
2007,05,31,07,13,15.60
2007,05,31,07,14,15.60
2007,05,31,07,15,15.60
2007,05,31,07,16,15.60
2007,05,31,07,17,15.60
2007,05,31,07,18,15.60
2007,05,31,07,19,15.60
2007,05,31,07,20,15.70
2007,05,31,07,21,15.80
2007,05,31,07,22,15.90
2007,05,31,07,23,16.00
2007,05,31,07,24,16.10
2007,05,31,07,25,16.20
2007,05,31,07,26,16.20
2007,05,31,07,27,16.30
2007,05,31,07,28,16.40
2007,05,31,07,29,16.50
2007,05,31,07,30,16.60
2007,05,31,07,31,16.70
2007,05,31,07,32,16.70
2007,05,31,07,33,16.80
2007,05,31,07,34,16.90
2007,05,31,07,35,16.90
2007,05,31,07,36,17.00
2007,05,31,07,37,17.00
2007,05,31,07,38,17.10
2007,05,31,07,39,17.30
2007,05,31,07,40,17.50
2007,05,31,07,41,17.60
2007,05,31,07,42,17.80
2007,05,31,07,43,17.90
2007,05,31,07,44,17.90
2007,05,31,07,45,17.90
2007,05,31,07,46,17.90
2007,05,31,07,47,17.90
2007,05,31,07,48,18.00
2007,05,31,07,49,18.10
2007,05,31,07,50,18.10
2007,05,31,07,51,18.10
2007,05,31,07,52,18.10
2007,05,31,07,53,18.10
2007,05,31,07,54,18.10
2007,05,31,07,55,18.00
2007,05,31,07,56,17.90
2007,05,31,07,57,17.90
2007,05,31,07,58,17.90
2007,05,31,07,59,17.90
2007,05,31,08,00,17.90
2007,05,31,08,01,17.90
2007,05,31,08,02,17.90
2007,05,31,08,03,18.10
2007,05,31,08,04,18.20
2007,05,31,08,05,18.20
2007,05,31,08,06,18.40
2007,05,31,08,07,18.50
2007,05,31,08,08,18.50
2007,05,31,08,09,18.60
2007,05,31,08,10,18.70
2007,05,31,08,11,18.80
2007,05,31,08,12,18.80
2007,05,31,08,13,18.80
2007,05,31,08,14,18.80
2007,05,31,08,15,18.80
2007,05,31,08,16,18.80
2007,05,31,08,17,18.90
2007,05,31,08,18,18.90
2007,05,31,08,19,19.00
2007,05,31,08,20,19.10
2007,05,31,08,21,19.20
2007,05,31,08,22,19.30
2007,05,31,08,23,19.40
2007,05,31,08,24,19.50
2007,05,31,08,25,19.40
2007,05,31,08,26,19.40
2007,05,31,08,27,19.20
2007,05,31,08,28,19.20
2007,05,31,08,29,19.10
2007,05,31,08,30,19.10
2007,05,31,08,31,19.10
2007,05,31,08,32,19.10
2007,05,31,08,33,19.00
2007,05,31,08,34,18.90
2007,05,31,08,35,18.90
2007,05,31,08,36,19.00
2007,05,31,08,37,19.10
2007,05,31,08,38,19.20
2007,05,31,08,39,19.30
2007,05,31,08,40,19.40
2007,05,31,08,41,19.40
2007,05,31,08,42,19.30
2007,05,31,08,43,19.30
2007,05,31,08,44,19.20
2007,05,31,08,45,19.10
2007,05,31,08,46,19.10
2007,05,31,08,47,19.10
2007,05,31,08,48,19.10
2007,05,31,08,49,19.10
2007,05,31,08,50,19.10
2007,05,31,08,51,19.10
2007,05,31,08,52,19.10
2007,05,31,08,53,19.10
2007,05,31,08,54,19.00
2007,05,31,08,55,18.90
2007,05,31,08,56,18.90
2007,05,31,08,57,18.90
2007,05,31,08,58,19.00
2007,05,31,08,59,19.10
2007,05,31,09,00,19.20
2007,05,31,09,01,19.30
2007,05,31,09,02,19.20
2007,05,31,09,03,19.20
2007,05,31,09,04,19.20
2007,05,31,09,05,19.30
2007,05,31,09,06,19.40
2007,05,31,09,07,19.40
2007,05,31,09,08,19.40
2007,05,31,09,09,19.30
2007,05,31,09,10,19.20
2007,05,31,09,11,19.10
2007,05,31,09,12,19.10
2007,05,31,09,13,19.10
2007,05,31,09,14,19.10
2007,05,31,09,15,19.10
2007,05,31,09,16,19.10
2007,05,31,09,17,19.10
2007,05,31,09,18,19.10
2007,05,31,09,19,19.10
2007,05,31,09,20,19.10
2007,05,31,09,21,19.10
2007,05,31,09,22,19.10
2007,05,31,09,23,19.10
2007,05,31,09,24,19.10
2007,05,31,09,25,19.10
2007,05,31,09,26,19.10
2007,05,31,09,27,19.10
2007,05,31,09,28,19.10
2007,05,31,09,29,19.10
2007,05,31,09,30,19.10
2007,05,31,09,31,19.10
2007,05,31,09,32,19.20
2007,05,31,09,33,19.30
2007,05,31,09,34,19.40
2007,05,31,09,35,19.40
2007,05,31,09,36,19.50
2007,05,31,09,37,19.60
2007,05,31,09,38,19.70
2007,05,31,09,39,19.70
2007,05,31,09,40,19.70
2007,05,31,09,41,19.70
2007,05,31,09,42,19.70
2007,05,31,09,43,19.80
2007,05,31,09,44,19.80
2007,05,31,09,45,19.80
2007,05,31,09,46,19.90
2007,05,31,09,47,19.90
2007,05,31,09,48,19.90
2007,05,31,09,49,19.80
2007,05,31,09,50,19.60
2007,05,31,09,51,19.60
2007,05,31,09,52,19.50
2007,05,31,09,53,19.30
2007,05,31,09,54,19.30
2007,05,31,09,55,19.10
2007,05,31,09,56,19.10
2007,05,31,09,57,19.00
2007,05,31,09,58,19.00
2007,05,31,09,59,19.00
2007,05,31,10,00,18.90
2007,05,31,10,01,19.00
2007,05,31,10,02,19.10
2007,05,31,10,03,19.10
2007,05,31,10,04,19.20
2007,05,31,10,05,19.30
2007,05,31,10,06,19.20
2007,05,31,10,07,19.20
2007,05,31,10,08,19.10
2007,05,31,10,09,19.10
2007,05,31,10,10,19.10
2007,05,31,10,11,19.00
2007,05,31,10,12,18.90
2007,05,31,10,13,18.90
2007,05,31,10,14,18.90
2007,05,31,10,15,19.10
2007,05,31,10,16,19.10
2007,05,31,10,17,19.20
2007,05,31,10,18,19.20
2007,05,31,10,19,19.20
2007,05,31,10,20,19.10
2007,05,31,10,21,19.10
2007,05,31,10,22,19.10
2007,05,31,10,23,19.00
2007,05,31,10,24,18.90
2007,05,31,10,25,18.80
2007,05,31,10,26,18.80
2007,05,31,10,27,18.80
2007,05,31,10,28,18.90
2007,05,31,10,29,19.00
2007,05,31,10,30,19.20
2007,05,31,10,31,19.30
2007,05,31,10,32,19.40
2007,05,31,10,33,19.40
2007,05,31,10,34,19.50
2007,05,31,10,35,19.40
2007,05,31,10,36,19.40
2007,05,31,10,37,19.30
2007,05,31,10,38,19.40
2007,05,31,10,39,19.50
2007,05,31,10,40,19.60
2007,05,31,10,41,19.80
2007,05,31,10,42,19.90
2007,05,31,10,43,20.00
2007,05,31,10,44,20.10
2007,05,31,10,45,20.10
2007,05,31,10,46,20.10
2007,05,31,10,47,20.10
2007,05,31,10,48,20.20
2007,05,31,10,49,20.20
2007,05,31,10,50,20.30
2007,05,31,10,51,20.30
2007,05,31,10,52,20.20
2007,05,31,10,53,20.20
2007,05,31,10,54,20.20
2007,05,31,10,55,20.20
2007,05,31,10,56,20.20
2007,05,31,10,57,20.10
2007,05,31,10,58,19.90
2007,05,31,10,59,19.90
2007,05,31,11,00,19.90
2007,05,31,11,01,19.80
2007,05,31,11,02,19.60
2007,05,31,11,03,19.30
2007,05,31,11,04,19.20
2007,05,31,11,05,19.10
2007,05,31,11,06,18.90
2007,05,31,11,07,18.80
2007,05,31,11,08,18.80
2007,05,31,11,09,18.90
2007,05,31,11,10,18.80
2007,05,31,11,11,18.80
2007,05,31,11,12,18.80
2007,05,31,11,13,18.70
2007,05,31,11,14,18.70
2007,05,31,11,15,18.70
2007,05,31,11,16,18.70
2007,05,31,11,17,18.80
2007,05,31,11,18,18.80
2007,05,31,11,19,18.90
2007,05,31,11,20,19.10
2007,05,31,11,21,19.10
2007,05,31,11,22,19.20
2007,05,31,11,23,19.20
2007,05,31,11,24,19.20
2007,05,31,11,25,19.20
2007,05,31,11,26,19.20
2007,05,31,11,27,19.20
2007,05,31,11,28,19.20
2007,05,31,11,29,19.10
2007,05,31,11,30,19.10
2007,05,31,11,31,19.40
2007,05,31,11,32,19.60
2007,05,31,11,33,19.80
2007,05,31,11,34,19.80
2007,05,31,11,35,19.90
2007,05,31,11,36,19.90
2007,05,31,11,37,19.90
2007,05,31,11,38,19.90
2007,05,31,11,39,20.00
2007,05,31,11,40,20.20
2007,05,31,11,41,20.40
2007,05,31,11,42,20.70
2007,05,31,11,43,20.90
2007,05,31,11,44,20.90
2007,05,31,11,45,21.10
2007,05,31,11,46,21.20
2007,05,31,11,47,21.50
2007,05,31,11,48,21.50
2007,05,31,11,49,21.30
2007,05,31,11,50,21.30
2007,05,31,11,51,21.00
2007,05,31,11,52,20.80
2007,05,31,11,53,20.50
2007,05,31,11,54,20.30
2007,05,31,11,55,20.30
2007,05,31,11,56,20.30
2007,05,31,11,57,20.40
2007,05,31,11,58,20.40
2007,05,31,11,59,20.20
2007,05,31,12,00,19.90
2007,05,31,12,01,19.90
2007,05,31,12,02,19.90
2007,05,31,12,03,19.80
2007,05,31,12,04,19.80
2007,05,31,12,05,19.80
2007,05,31,12,06,19.90
2007,05,31,12,07,19.90
2007,05,31,12,08,19.90
2007,05,31,12,09,19.90
2007,05,31,12,10,19.80
2007,05,31,12,11,19.70
2007,05,31,12,12,19.70
2007,05,31,12,13,19.70
2007,05,31,12,14,19.90
2007,05,31,12,15,19.90
2007,05,31,12,16,19.90
2007,05,31,12,17,20.10
2007,05,31,12,18,20.10
2007,05,31,12,19,20.00
2007,05,31,12,20,19.90
2007,05,31,12,21,19.90
2007,05,31,12,22,19.90
2007,05,31,12,23,19.90
2007,05,31,12,24,20.00
2007,05,31,12,25,20.20
2007,05,31,12,26,20.40
2007,05,31,12,27,20.60
2007,05,31,12,28,20.60
2007,05,31,12,29,20.80
2007,05,31,12,30,20.90
2007,05,31,12,31,21.00
2007,05,31,12,32,21.10
2007,05,31,12,33,21.20
2007,05,31,12,34,21.30
2007,05,31,12,35,21.30
2007,05,31,12,36,21.40
2007,05,31,12,37,21.40
2007,05,31,12,38,21.10
2007,05,31,12,39,21.00
2007,05,31,12,40,20.90
2007,05,31,12,41,20.60
2007,05,31,12,42,20.30
2007,05,31,12,43,20.20
2007,05,31,12,44,20.20
2007,05,31,12,45,20.20
2007,05,31,12,46,20.20
2007,05,31,12,47,20.20
2007,05,31,12,48,20.10
2007,05,31,12,49,20.10
2007,05,31,12,50,20.20
2007,05,31,12,51,20.40
2007,05,31,12,52,20.60
2007,05,31,12,53,20.80
2007,05,31,12,54,20.90
2007,05,31,12,55,21.10
2007,05,31,12,56,21.30
2007,05,31,12,57,21.30
2007,05,31,12,58,21.10
2007,05,31,12,59,21.00
2007,05,31,13,00,20.90
2007,05,31,13,01,20.70
2007,05,31,13,02,20.60
2007,05,31,13,03,20.50
2007,05,31,13,04,20.60
2007,05,31,13,05,20.80
2007,05,31,13,06,20.60
2007,05,31,13,07,20.60
2007,05,31,13,08,20.70
2007,05,31,13,09,20.80
2007,05,31,13,10,20.70
2007,05,31,13,11,20.50
2007,05,31,13,12,20.50
2007,05,31,13,13,20.50
2007,05,31,13,14,20.50
2007,05,31,13,15,20.60
2007,05,31,13,16,20.80
2007,05,31,13,17,20.80
2007,05,31,13,18,20.90
2007,05,31,13,19,20.80
2007,05,31,13,20,20.90
2007,05,31,13,21,21.00
2007,05,31,13,22,21.00
2007,05,31,13,23,21.00
2007,05,31,13,24,20.90
2007,05,31,13,25,20.90
2007,05,31,13,26,21.00
2007,05,31,13,27,21.10
2007,05,31,13,28,21.00
2007,05,31,13,29,20.80
2007,05,31,13,30,20.70
2007,05,31,13,31,20.60
2007,05,31,13,32,20.50
2007,05,31,13,33,20.40
2007,05,31,13,34,20.20
2007,05,31,13,35,20.30
2007,05,31,13,36,20.20
2007,05,31,13,37,20.20
2007,05,31,13,38,20.20
2007,05,31,13,39,20.20
2007,05,31,13,40,20.20
2007,05,31,13,41,20.50
2007,05,31,13,42,20.70
2007,05,31,13,43,20.70
2007,05,31,13,44,20.60
2007,05,31,13,45,20.40
2007,05,31,13,46,20.30
2007,05,31,13,47,20.30
2007,05,31,13,48,20.30
2007,05,31,13,49,20.40
2007,05,31,13,50,20.50
2007,05,31,13,51,20.60
2007,05,31,13,52,20.80
2007,05,31,13,53,20.90
2007,05,31,13,54,20.90
2007,05,31,13,55,21.00
2007,05,31,13,56,21.10
2007,05,31,13,57,21.50
2007,05,31,13,58,21.60
2007,05,31,13,59,21.60
2007,05,31,14,00,21.60
2007,05,31,14,01,21.60
2007,05,31,14,02,21.60
2007,05,31,14,03,21.50
2007,05,31,14,04,21.60
2007,05,31,14,05,21.60
2007,05,31,14,06,21.70
2007,05,31,14,07,21.70
2007,05,31,14,08,21.50
2007,05,31,14,09,21.50
2007,05,31,14,10,21.40
2007,05,31,14,11,21.30
2007,05,31,14,12,21.10
2007,05,31,14,13,21.10
2007,05,31,14,14,21.10
2007,05,31,14,15,21.00
2007,05,31,14,16,20.90
2007,05,31,14,17,20.80
2007,05,31,14,18,20.80
2007,05,31,14,19,20.80
2007,05,31,14,20,21.00
2007,05,31,14,21,21.10
2007,05,31,14,22,21.30
2007,05,31,14,23,21.60
2007,05,31,14,24,21.90
2007,05,31,14,25,22.20
2007,05,31,14,26,22.20
2007,05,31,14,27,22.10
2007,05,31,14,28,22.20
2007,05,31,14,29,22.10
2007,05,31,14,30,22.10
2007,05,31,14,31,22.20
2007,05,31,14,32,22.20
2007,05,31,14,33,22.30
2007,05,31,14,34,22.40
2007,05,31,14,35,22.60
2007,05,31,14,36,22.70
2007,05,31,14,37,22.80
2007,05,31,14,38,22.90
2007,05,31,14,39,23.10
2007,05,31,14,40,23.30
2007,05,31,14,41,23.40
2007,05,31,14,42,23.40
2007,05,31,14,43,23.40
2007,05,31,14,44,23.40
2007,05,31,14,45,23.40
2007,05,31,14,46,23.60
2007,05,31,14,47,23.90
2007,05,31,14,48,23.90
2007,05,31,14,49,24.00
2007,05,31,14,50,24.00
2007,05,31,14,51,23.90
2007,05,31,14,52,23.70
2007,05,31,14,53,23.60
2007,05,31,14,54,23.70
2007,05,31,14,55,23.70
2007,05,31,14,56,23.70
2007,05,31,14,57,23.60
2007,05,31,14,58,23.50
2007,05,31,14,59,23.50
2007,05,31,15,00,23.20
2007,05,31,15,01,23.20
2007,05,31,15,02,23.30
2007,05,31,15,03,23.40
2007,05,31,15,04,23.40
2007,05,31,15,05,23.40
2007,05,31,15,06,23.50
2007,05,31,15,07,23.60
2007,05,31,15,08,23.70
2007,05,31,15,09,23.60
2007,05,31,15,10,23.30
2007,05,31,15,11,23.40
2007,05,31,15,12,23.60
2007,05,31,15,13,23.50
2007,05,31,15,14,23.20
2007,05,31,15,15,23.10
2007,05,31,15,16,23.30
2007,05,31,15,17,23.20
2007,05,31,15,18,23.10
2007,05,31,15,19,23.10
2007,05,31,15,20,23.20
2007,05,31,15,21,23.30
2007,05,31,15,22,23.20
2007,05,31,15,23,22.90
2007,05,31,15,24,22.90
2007,05,31,15,25,22.90
2007,05,31,15,26,22.90
2007,05,31,15,27,22.80
2007,05,31,15,28,22.70
2007,05,31,15,29,22.70
2007,05,31,15,30,22.70
2007,05,31,15,31,22.90
2007,05,31,15,32,22.90
2007,05,31,15,33,22.90
2007,05,31,15,34,23.00
2007,05,31,15,35,23.10
2007,05,31,15,36,23.20
2007,05,31,15,37,23.20
2007,05,31,15,38,23.40
2007,05,31,15,39,23.40
2007,05,31,15,40,23.60
2007,05,31,15,41,23.70
2007,05,31,15,42,23.60
2007,05,31,15,43,23.50
2007,05,31,15,44,23.50
2007,05,31,15,45,23.40
2007,05,31,15,46,23.20
2007,05,31,15,47,23.00
2007,05,31,15,48,22.90
2007,05,31,15,49,22.90
2007,05,31,15,50,23.00
2007,05,31,15,51,23.10
2007,05,31,15,52,23.10
2007,05,31,15,53,23.10
2007,05,31,15,54,23.20
2007,05,31,15,55,23.40
2007,05,31,15,56,23.60
2007,05,31,15,57,23.80
2007,05,31,15,58,23.70
2007,05,31,15,59,23.40
2007,05,31,16,00,23.20
2007,05,31,16,01,22.90
2007,05,31,16,02,22.60
2007,05,31,16,03,22.40
2007,05,31,16,04,22.10
2007,05,31,16,05,21.80
2007,05,31,16,06,21.70
2007,05,31,16,07,21.80
2007,05,31,16,08,21.90
2007,05,31,16,09,22.10
2007,05,31,16,10,22.30
2007,05,31,16,11,22.30
2007,05,31,16,12,22.40
2007,05,31,16,13,22.30
2007,05,31,16,14,22.10
2007,05,31,16,15,22.10
2007,05,31,16,16,22.10
2007,05,31,16,17,22.20
2007,05,31,16,18,22.30
2007,05,31,16,19,22.40
2007,05,31,16,20,22.50
2007,05,31,16,21,22.40
2007,05,31,16,22,22.40
2007,05,31,16,23,22.50
2007,05,31,16,24,22.50
2007,05,31,16,25,22.50
2007,05,31,16,26,22.60
2007,05,31,16,27,22.80
2007,05,31,16,28,22.90
2007,05,31,16,29,22.90
2007,05,31,16,30,22.90
2007,05,31,16,31,23.00
2007,05,31,16,32,23.20
2007,05,31,16,33,23.20
2007,05,31,16,34,23.20
2007,05,31,16,35,23.20
2007,05,31,16,36,23.20
2007,05,31,16,37,23.30
2007,05,31,16,38,23.30
2007,05,31,16,39,23.40
2007,05,31,16,40,23.60
2007,05,31,16,41,23.60
2007,05,31,16,42,23.70
2007,05,31,16,43,23.80
2007,05,31,16,44,23.90
2007,05,31,16,45,23.90
2007,05,31,16,46,23.80
2007,05,31,16,47,23.90
2007,05,31,16,48,24.10
2007,05,31,16,49,24.10
2007,05,31,16,50,24.10
2007,05,31,16,51,24.10
2007,05,31,16,52,24.10
2007,05,31,16,53,24.10
2007,05,31,16,54,24.10
2007,05,31,16,55,24.20
2007,05,31,16,56,24.30
2007,05,31,16,57,24.40
2007,05,31,16,58,24.40
2007,05,31,16,59,24.30
2007,05,31,17,00,24.10
2007,05,31,17,01,23.90
2007,05,31,17,02,23.80
2007,05,31,17,03,23.70
2007,05,31,17,04,23.70
2007,05,31,17,05,23.80
2007,05,31,17,06,23.90
2007,05,31,17,07,24.00
2007,05,31,17,08,24.10
2007,05,31,17,09,24.20
2007,05,31,17,10,24.30
2007,05,31,17,11,24.40
2007,05,31,17,12,24.40
2007,05,31,17,13,24.40
2007,05,31,17,14,24.40
2007,05,31,17,15,24.40
2007,05,31,17,16,24.40
2007,05,31,17,17,24.20
2007,05,31,17,18,24.10
2007,05,31,17,19,23.90